RH
15 13 13 13 14 14 13 13 13 14 14 12 11 11 9 9 9 9 9 9 10 11 11 11 11 11 11 11 11 11 11 11 11 11 11 11 10 11 11 11 11 12 14 15 17 16 14 13 13 12 13 13 14 14 13 13 13 13 14 15 15 15 14 14 14 15 16 15 14 14 14 14 17 20 21 22 24 27 29 31 37 40 36 34 35 40 46 48
12 11 11 12 14 14 13 14 15 15 14 12 10 10 9 8 8 8 9 10 10 11 11 11 11 11 11 11 11 11 11 11 12 11 11 12 11 11 11 11 11 13 15 16 15 14 13 12 12 13 13 14 13 13 13 13 13 13 15 14 15 15 14 14 15 16 16 15 15 15 15 14 17 21 22 23 24 26 27 31 38 41 39 37 39 44 45 46
11 11 10 10 12 14 15 16 16 15 14 12 10 10 9 8 8 8 8 9 10 11 11 11 11 11 11 11 11 10 11 12 13 13 14 13 12 10 10 11 11 14 16 15 14 12 12 12 13 13 14 14 13 12 12 13 13 13 14 14 14 14 14 14 15 16 16 16 16 16 16 17 19 21 23 24 25 27 27 33 40 42 44 45 47 48 46 46
10 10 10 11 15 18 19 18 17 15 13 12 10 10 9 8 7 8 8 9 10 10 11 11 11 11 10 10 10 9 11 14 14 14 14 13 11 10 10 10 11 14 15 14 13 12 11 12 13 13 13 13 13 13 12 12 13 14 14 13 14 14 14 13 15 16 17 16 17 17 17 19 21 21 24 26 27 28 29 36 41 42 45 49 50 48 45 46
11 12 14 16 19 21 20 19 18 16 15 12 10 10 9 8 7 7 8 8 9 9 10 10 10 10 9 9 8 9 13 15 16 16 15 13 11 10 10 10 12 14 15 14 12 11 12 12 12 13 13 13 13 12 12 13 13 13 14 13 14 14 13 13 15 16 16 17 17 18 18 20 22 24 27 27 27 28 31 38 42 42 40 41 45 45 45 46
15 17 18 19 20 20 19 19 18 17 16 14 12 10 9 9 8 8 8 8 9 9 9 10 10 9 8 8 9 11 13 16 18 18 16 14 12 11 10 10 11 13 13 13 11 11 11 12 12 12 13 13 13 13 12 13 13 13 13 13 14 13 13 13 15 16 17 18 18 18 19 20 23 26 29 29 28 28 30 35 39 40 39 38 41 42 44 45
19 19 19 19 20 20 19 18 18 17 17 15 13 11 9 9 9 9 9 9 8 8 8 9 9 9 8 9 11 13 14 16 16 16 17 15 12 12 11 10 11 12 12 12 10 10 11 12 12 13 13 13 13 13 13 13 12 12 12 13 14 13 14 14 16 17 17 18 18 19 18 20 23 25 30 31 30 30 28 29 34 37 41 45 45 44 46 46
19 19 19 20 20 20 19 18 18 18 18 16 14 11 9 10 10 9 10 9 9 9 9 9 9 8 9 10 12 14 15 15 13 12 14 14 12 12 11 11 11 12 12 12 11 11 12 13 12 13 13 12 13 13 13 12 12 11 12 13 14 13 15 16 17 18 18 19 18 18 18 20 21 22 29 31 30 32 29 29 33 36 42 48 48 49 50 47
20 20 21 21 21 21 21 20 20 20 20 19 16 12 10 10 10 10 10 10 10 10 10 9 9 8 9 11 14 15 15 14 11 11 12 12 12 12 12 12 12 12 12 12 11 11 12 12 13 13 13 13 13 13 13 12 12 12 12 13 14 14 16 17 18 19 19 19 18 18 19 19 20 21 27 28 28 32 31 31 33 35 40 46 50 52 49 44
20 21 22 22 21 21 22 21 21 22 22 21 20 16 13 10 10 10 10 11 10 11 11 10 9 8 9 12 15 16 15 14 11 10 11 10 10 11 12 12 12 12 12 12 11 12 13 13 14 14 13 13 13 14 14 12 13 14 14 14 14 14 16 19 19 19 19 19 19 18 18 19 19 21 24 25 27 30 30 32 34 34 39 46 50 50 47 42
19 21 23 22 21 22 21 21 21 21 21 21 21 21 17 12 11 11 11 11 10 11 11 9 8 8 10 14 16 16 15 14 11 9 10 9 9 10 9 9 10 10 11 11 13 16 15 14 16 15 14 14 14 14 15 13 13 14 14 14 14 14 16 19 19 19 19 19 19 18 18 19 19 20 23 25 27 29 29 31 35 36 39 46 48 46 44 41
18 19 21 22 22 22 21 21 21 20 20 20 20 22 22 17 13 12 12 11 11 11 11 10 9 9 13 16 17 16 15 14 11 9 9 10 10 9 9 8 8 9 10 13 16 17 16 15 16 16 16 16 15 15 15 15 14 15 14 13 14 13 15 18 19 19 19 18 19 18 18 19 19 20 24 26 28 29 30 33 38 40 40 45 46 43 41 39
16 18 19 19 20 21 21 21 20 20 20 20 20 22 24 21 15 13 13 12 11 10 10 10 10 12 16 18 17 17 16 14 12 10 10 11 11 11 10 10 10 10 12 16 18 17 18 16 16 17 17 17 17 17 16 15 14 15 15 14 15 14 15 17 19 18 18 18 18 18 19 20 20 21 26 29 29 30 33 38 42 43 43 44 43 40 39 37
13 15 17 17 17 18 19 19 18 18 20 21 20 21 25 24 18 14 14 14 12 11 11 11 11 16 19 18 17 18 16 14 13 11 11 11 12 12 12 11 12 12 14 17 17 17 18 17 16 17 17 17 17 17 17 16 16 17 16 16 17 17 16 17 19 19 17 18 18 18 20 21 20 21 28 32 31 31 35 40 43 43 44 44 42 39 38 38
12 13 14 16 16 16 16 16 15 16 18 21 21 22 23 23 20 16 15 16 13 12 12 11 14 17 19 17 18 18 17 16 15 13 12 12 13 13 13 13 13 14 15 16 16 17 18 17 17 16 17 17 17 17 18 18 18 19 18 18 19 17 17 17 19 19 18 19 19 19 20 21 20 21 27 32 32 32 35 38 42 42 44 43 41 39 38 37
11 12 12 14 15 15 15 14 14 14 16 20 21 23 23 23 22 18 18 18 16 15 14 13 15 18 19 18 18 19 18 17 17 15 14 13 14 15 15 15 15 16 16 16 16 17 18 18 17 17 17 17 18 18 19 19 20 21 20 21 20 18 18 18 19 19 19 19 19 19 20 21 21 22 27 31 32 32 33 36 39 41 41 40 38 36 35 34
11 11 12 13 13 14 15 15 14 14 16 19 20 22 23 22 22 21 19 19 19 18 17 14 14 18 20 19 19 20 19 18 17 16 16 15 15 16 16 16 17 17 17 17 17 17 18 18 19 19 18 20 20 18 19 21 21 22 23 23 22 21 20 21 20 20 21 20 20 21 21 20 21 23 25 30 31 31 32 33 35 37 38 37 35 33 32 31
11 11 12 12 13 14 15 15 15 15 17 20 19 20 22 20 21 22 22 20 19 19 19 16 15 19 20 19 20 20 19 18 18 17 17 16 16 16 17 18 18 18 18 18 18 18 19 19 20 21 21 22 21 19 20 22 22 23 24 24 24 24 23 23 22 23 23 21 22 22 21 21 22 23 24 28 31 31 31 32 33 35 36 36 35 33 32 30
11 12 12 12 13 13 14 14 15 17 19 19 19 19 20 19 20 22 23 22 20 19 20 18 18 20 21 21 22 22 20 19 18 17 17 17 17 17 17 17 18 18 18 18 19 19 20 20 20 21 22 21 21 20 19 21 22 23 24 24 24 24 24 25 24 24 25 23 22 23 22 21 21 22 22 25 29 30 30 32 32 33 34 35 36 34 33 31
11 12 12 12 12 13 14 15 16 19 19 19 18 18 20 21 22 22 22 21 20 19 20 19 20 22 21 22 22 22 22 21 19 18 18 18 17 18 18 17 18 18 18 19 19 20 21 21 21 21 21 22 24 24 23 24 24 24 25 25 24 24 24 24 24 26 28 24 23 25 25 23 23 22 22 23 25 26 28 30 31 30 31 34 36 35 34 33
11 11 11 11 11 13 15 16 18 19 20 19 18 19 21 23 24 24 21 19 18 18 19 20 22 23 23 23 22 22 22 22 21 19 19 19 18 18 18 18 18 18 20 22 21 20 20 20 23 24 25 26 27 29 28 28 28 26 26 26 26 26 25 25 26 28 28 24 24 27 26 24 25 24 25 24 23 24 26 28 29 29 29 32 35 36 36 36
11 11 12 12 12 14 16 18 19 19 19 20 19 21 22 24 25 24 23 21 19 18 19 19 21 24 24 23 23 23 23 23 22 22 21 20 19 19 19 18 19 18 21 22 20 20 21 20 23 27 30 31 32 32 31 31 30 27 27 27 27 27 26 27 28 30 29 24 23 25 24 24 27 27 27 26 24 23 23 24 26 27 29 31 33 36 37 39
12 12 13 13 14 16 18 19 20 19 19 21 20 21 24 27 27 26 25 25 22 20 19 20 22 24 25 25 25 24 24 24 24 23 23 22 22 22 21 20 20 20 21 21 19 19 20 21 25 30 31 31 33 32 31 31 30 28 28 27 28 30 29 27 29 31 30 26 24 23 23 25 28 29 28 28 27 24 22 23 24 25 28 30 32 34 36 38
13 14 15 16 16 17 19 20 20 19 20 21 21 22 24 26 27 27 26 27 28 24 22 22 24 24 25 25 26 26 26 25 24 24 24 23 23 23 22 22 22 22 22 23 23 20 19 23 28 31 31 29 30 31 30 27 27 30 30 28 28 30 29 28 30 31 29 27 26 23 21 23 26 28 27 28 29 27 25 24 24 24 26 29 32 33 35 36
15 16 17 18 18 19 20 20 20 19 20 20 20 21 23 23 24 25 28 32 32 27 24 23 23 24 26 27 28 28 27 25 25 25 25 24 23 23 23 22 22 22 23 25 24 22 22 25 29 31 32 31 30 30 31 28 26 29 30 29 28 30 30 30 32 30 26 27 28 26 22 23 25 27 28 29 30 30 30 29 28 26 26 28 31 33 34 36
16 17 18 18 19 20 21 20 18 17 18 19 19 22 23 23 22 24 31 36 31 26 25 24 25 27 29 29 29 29 29 28 26 28 28 27 26 25 24 24 22 23 25 24 23 22 23 26 30 32 34 34 32 32 34 33 29 29 31 33 33 33 34 34 32 30 28 28 32 31 26 25 25 25 28 31 32 32 33 35 33 30 28 28 30 31 32 34
17 16 17 17 18 19 19 19 17 16 15 16 18 21 21 20 23 28 36 37 33 32 31 28 30 32 31 30 30 30 31 30 28 30 32 31 28 26 25 26 24 23 26 25 23 24 25 27 30 35 36 34 33 34 38 37 32 33 38 39 37 37 37 36 34 32 32 32 33 33 29 28 26 25 29 32 32 32 33 34 35 33 32 32 32 32 31 32
16 16 16 16 16 16 16 16 16 14 13 14 16 18 17 20 27 33 38 37 35 36 35 32 33 32 31 32 32 33 33 31 30 32 33 33 31 28 26 26 26 27 29 27 25 27 29 26 27 33 35 31 31 35 39 38 34 37 43 43 40 41 40 39 35 33 34 32 30 31 31 30 27 26 29 30 29 30 31 32 33 34 37 38 36 35 32 31
17 15 15 14 14 14 15 16 16 15 14 14 14 14 16 24 33 38 37 34 36 37 36 36 35 33 32 34 34 34 34 34 33 33 33 34 33 31 29 27 29 30 30 29 28 30 29 25 23 27 28 28 33 37 38 38 37 41 43 42 41 41 40 38 35 32 33 31 29 31 32 31 29 27 26 27 27 28 30 31 32 34 37 38 37 34 32 31
18 15 13 12 11 11 13 15 16 16 15 13 11 11 16 28 39 42 37 33 35 37 37 37 38 37 37 37 36 36 35 35 33 31 32 32 31 31 29 29 30 30 31 30 28 28 27 26 27 25 24 28 33 37 37 37 38 41 40 36 36 36 35 35 33 31 31 29 28 31 34 32 31 27 25 27 28 29 32 32 32 33 35 35 34 33 32 30
19 16 12 10 11 11 11 13 14 14 13 11 11 13 20 33 42 43 38 34 34 35 36 38 38 39 39 37 34 33 32 31 29 27 27 27 26 27 27 28 28 29 30 30 27 28 27 26 28 26 25 27 29 31 34 35 37 38 36 34 35 34 33 32 32 31 31 30 29 32 35 34 31 29 27 28 29 30 33 32 32 33 34 35 35 32 30 29
18 16 12 12 15 15 14 15 14 14 14 14 15 16 23 36 42 41 38 36 34 35 35 35 36 37 37 31 26 26 26 25 24 23 23 23 24 25 25 27 27 27 27 27 27 28 26 25 26 25 25 26 26 28 30 32 33 35 34 36 37 36 35 34 33 33 33 32 32 33 35 34 31 29 28 28 28 30 31 31 31 32 33 34 34 32 29 27
17 15 14 15 18 18 17 17 17 15 17 18 17 19 25 34 38 38 39 35 33 35 35 33 34 33 29 25 22 22 21 21 22 21 21 21 22 23 24 25 25 24 25 26 26 26 24 25 26 25 25 26 26 27 29 31 32 33 34 36 38 37 38 38 36 35 35 35 36 38 37 34 31 30 30 30 30 30 31 31 31 31 31 31 32 32 31 30
17 15 14 17 19 18 18 19 17 16 17 18 18 19 21 27 33 37 38 34 30 32 33 33 34 30 25 23 23 21 20 21 21 20 20 20 21 22 22 22 23 24 26 26 26 25 24 25 26 25 26 27 27 27 29 30 31 32 32 33 36 37 37 37 35 35 36 38 40 41 39 36 34 35 36 35 34 32 32 31 31 31 31 31 32 34 38 38
18 17 15 17 18 18 18 18 18 16 15 18 21 21 19 23 30 34 33 31 30 29 29 32 33 31 27 26 26 23 20 21 21 21 21 20 21 22 21 22 22 24 25 25 25 26 23 23 24 25 26 27 27 30 30 29 31 34 34 34 37 37 38 38 37 37 37 37 39 40 39 36 36 39 39 38 38 36 34 33 31 31 33 33 34 35 40 45
17 18 18 18 17 18 19 17 16 15 15 19 21 20 22 25 27 29 29 28 27 27 28 30 31 30 29 28 27 26 23 22 22 23 23 22 23 22 22 22 23 24 24 24 26 26 23 23 24 24 25 26 27 29 30 30 33 37 36 37 39 40 41 42 43 43 40 36 37 38 38 36 36 38 38 37 38 38 37 35 33 33 33 34 35 37 41 47
15 16 17 19 19 18 17 15 15 14 16 20 19 20 26 26 23 25 27 26 26 26 27 30 29 27 29 29 28 27 27 25 24 23 22 23 24 25 24 23 23 24 24 24 26 27 25 25 25 24 24 25 26 27 29 31 33 34 36 38 40 42 43 43 43 45 44 40 38 38 38 37 36 39 39 38 40 40 40 39 38 37 36 35 36 38 42 46
14 15 17 20 19 17 14 14 15 16 19 24 25 26 29 26 23 23 23 23 25 25 27 29 28 26 27 28 27 28 28 26 26 25 23 24 26 26 27 25 24 25 26 25 26 28 27 25 25 25 24 25 25 26 28 30 30 32 35 37 40 43 45 45 44 45 45 44 42 39 40 38 36 37 39 39 41 41 41 41 40 39 39 40 39 39 41 43
14 16 18 18 17 15 15 15 16 18 21 24 27 30 29 26 24 22 21 23 24 24 26 27 26 25 26 26 25 26 27 26 27 26 23 24 25 25 27 27 25 25 27 27 28 31 31 28 27 27 26 26 26 26 28 30 31 33 34 37 40 43 46 46 46 45 44 46 46 42 40 38 35 38 40 40 40 41 41 40 39 39 39 41 42 42 41 41
13 17 19 18 16 16 16 15 18 22 23 24 27 29 26 25 25 22 21 22 22 23 25 25 25 26 26 26 25 25 25 24 23 23 22 22 22 23 25 24 22 24 26 29 32 34 33 32 31 29 29 29 28 29 29 29 30 31 33 36 39 42 45 45 46 46 45 48 49 46 42 38 36 40 41 39 40 40 40 39 37 37 38 39 42 43 43 43
12 16 20 18 17 18 16 16 22 29 29 27 27 25 22 23 25 24 23 22 21 22 23 25 25 27 27 26 25 23 22 21 20 19 20 19 19 20 22 22 21 21 22 25 29 32 32 32 33 32 31 30 30 31 31 31 30 30 31 33 35 38 41 42 44 45 45 46 48 48 46 41 41 45 43 40 41 41 41 40 38 38 40 40 41 41 41 42
12 16 18 17 18 18 17 20 26 31 30 25 23 22 22 23 25 25 24 22 23 22 23 25 26 28 27 25 23 23 22 21 20 19 19 19 20 21 21 23 24 22 21 22 24 28 29 30 31 31 29 29 32 33 34 34 33 32 33 34 35 38 39 39 40 43 44 45 46 48 48 45 46 48 45 43 44 45 46 46 44 43 43 42 41 39 39 38
12 14 15 16 18 17 18 24 27 29 28 24 21 21 22 24 25 26 25 25 25 24 25 26 24 24 24 23 22 22 21 22 22 19 20 21 23 22 22 25 27 26 25 24 25 28 29 28 29 29 27 27 29 32 35 36 35 34 35 38 40 41 43 44 44 46 47 47 48 51 51 49 51 52 49 49 50 52 52 51 50 50 48 45 43 40 38 38
13 15 15 16 16 16 20 24 25 27 30 29 26 25 23 23 24 25 26 25 25 25 26 26 23 21 22 22 22 22 21 22 22 21 22 23 24 24 24 27 29 30 29 29 29 28 28 29 31 30 30 28 27 29 31 33 35 36 38 40 41 42 45 47 48 48 48 49 52 54 52 52 57 57 55 54 54 55 56 55 55 56 55 52 48 44 41 39
14 15 16 15 14 16 22 24 24 27 32 33 32 30 27 25 23 24 24 24 24 24 25 24 22 22 22 23 23 24 23 23 23 24 26 27 27 27 28 28 30 32 33 33 32 30 29 33 34 32 33 33 31 29 29 31 34 36 38 39 40 42 43 43 43 44 44 47 52 54 52 54 57 57 54 54 54 54 55 56 56 57 57 55 52 50 47 44
16 18 18 17 15 17 22 24 25 27 30 32 32 31 30 29 27 25 23 23 23 23 23 23 23 23 24 25 27 28 27 26 27 29 31 31 30 29 30 30 31 33 34 33 32 34 35 37 38 36 36 36 34 34 35 36 35 35 36 37 39 42 43 41 39 40 41 43 45 49 52 51 52 53 53 53 55 56 56 56 56 57 56 54 51 49 48 47
18 22 24 22 19 20 23 24 26 27 28 29 29 29 30 30 29 27 24 24 24 24 24 25 24 24 25 27 30 31 31 32 32 34 35 34 32 31 31 32 32 33 35 34 34 38 40 40 42 43 42 40 40 41 42 42 39 37 38 38 39 42 44 41 39 39 41 40 39 43 47 44 43 48 49 50 54 57 57 57 57 57 56 52 48 45 44 45
21 25 26 25 23 24 26 27 29 29 28 28 29 29 29 29 29 28 25 25 25 24 25 25 25 24 26 29 31 32 34 35 34 36 37 34 34 34 33 35 36 35 37 38 40 44 44 42 45 47 45 44 46 45 46 46 44 42 41 41 41 42 43 41 39 41 41 38 36 39 42 38 36 40 44 47 51 52 52 52 51 49 48 47 45 43 44 44
24 26 27 26 26 28 29 30 31 31 30 32 31 29 29 28 28 27 24 25 27 27 26 28 27 27 30 32 33 35 36 34 34 37 38 36 38 40 38 39 42 41 42 45 47 49 48 48 51 51 48 47 46 47 47 47 46 44 44 44 44 44 44 42 41 41 40 38 37 40 41 38 35 38 43 45 46 46 47 48 47 45 45 45 46 46 46 45
30 30 31 29 28 30 30 29 31 31 31 33 32 29 29 28 27 27 25 27 30 31 29 31 31 31 33 35 36 37 38 36 36 37 39 40 42 44 45 45 47 47 48 50 53 52 51 54 56 54 51 49 46 45 47 47 46 45 44 46 47 47 46 45 43 44 43 42 42 43 44 41 40 44 47 47 46 47 48 49 49 48 47 48 49 48 47 45
34 35 37 37 35 35 35 34 35 35 34 34 36 34 32 32 32 32 31 30 33 35 35 36 37 36 37 38 39 39 39 41 41 40 42 43 45 47 50 50 51 52 53 55 56 54 52 55 56 54 52 49 44 43 43 43 43 42 42 45 48 47 48 48 46 47 48 46 46 46 44 40 41 48 51 51 52 52 50 50 50 48 48 48 48 46 44 43
37 36 40 41 39 39 42 41 40 39 38 39 41 41 39 38 39 40 39 37 37 39 40 41 43 42 42 43 45 44 43 45 46 47 48 50 50 52 52 53 54 54 54 55 54 53 52 52 52 53 51 46 43 43 43 41 40 37 37 40 42 43 46 48 48 50 52 50 49 47 44 43 47 51 52 53 54 54 52 51 50 49 48 48 46 42 41 40